Location: Santa Fe
(35.6870°N, 105.9370°W)
Time: 06:09:22
(UTC-06:00)

Amateur Radio Satellites - All Passes

Search period start: 30 June 2016 05:39
Search period end: 01 July 2016 05:39
Location: Santa Fe, 35.6870°N, 105.9370°W

Satellite Date Start Highest point End Downlink Frequencies (MHz)
Time Altitude Azimuth
HORYU 2 30 Jun 05:48:09 05:52:37 63° 101° (E) 05:57:04 437.375
AO-85 30 Jun 06:03:03 06:07:02 31° 53° (NE) 06:10:44 145.980
CUBESAT XI-V 30 Jun 06:03:41 06:08:16 54° 260° (W) 06:12:53 437.345
NOAA 15 30 Jun 06:17:19 06:21:31 24° 96° (E) 06:25:42 137.62
GONETS M04 30 Jun 06:23:49 06:32:32 77° 266° (W) 06:41:16
AIST 2 30 Jun 06:26:59 06:27:34 10° 315° (NW) 06:28:09 435.215
STRAND 1 30 Jun 06:30:32 06:34:12 20° 66° (ENE) 06:37:52 437.568
PHONESAT 2.4 30 Jun 06:37:57 06:41:01 84° 341° (NNW) 06:44:05 2401.200-2431.200
BRITE-PL 30 Jun 06:50:40 06:54:43 50° 100° (E) 06:58:52 437.365/2234.400
CUSAT 1 30 Jun 06:51:47 06:58:46 38° 92° (E) 07:04:51 437.405
Cubesat XI-IV 30 Jun 07:00:14 07:05:24 46° 99° (E) 07:10:32 437.490
Cosmos 2499 30 Jun 07:02:02 07:10:35 63° 269° (W) 07:18:33 435.465 / 435.565
NOAA 18 30 Jun 07:09:05 07:14:36 61° 102° (ESE) 07:20:04 137.9125
GOMX 1 30 Jun 07:14:59 07:19:01 40° 99° (E) 07:23:14 467.674
AO-7 30 Jun 07:23:43 07:27:06 13° 310° (NW) 07:30:29 29.400- 29.500
HORYU 2 30 Jun 07:27:19 07:28:35 11° 296° (WNW) 07:29:52 437.375
DANDE 30 Jun 07:30:04 07:37:40 40° 90° (E) 07:44:50 436.750
CUTE-I 30 Jun 07:33:51 07:39:16 83° 284° (WNW) 07:44:37 437.470
LilacSat-2 30 Jun 07:39:23 07:43:10 52° 285° (WNW) 07:46:57 437.200
AO-85 30 Jun 07:44:04 07:47:12 20° 251° (WSW) 07:50:11 145.980
ISS 30 Jun 07:56:08 07:59:21 67° 136° (SE) 08:02:36 145.825
NOAA 15 30 Jun 07:56:35 08:01:19 36° 290° (WNW) 08:06:02 137.62
CUTE 1.7 + AOD 2 30 Jun 07:56:44 07:57:51 11° 91° (E) 07:58:58 437.475
DOVE 4 30 Jun 08:05:43 08:10:07 71° 101° (E) 08:14:46 437.250
STRAND 1 30 Jun 08:08:08 08:13:00 43° 261° (W) 08:17:55 437.568
PHONESAT 2.4 30 Jun 08:15:01 08:17:50 32° 355° (N) 08:20:40 2401.200-2431.200
PRISM 30 Jun 08:17:39 08:21:22 32° 72° (ENE) 08:25:05 437.425
GONETS M04 30 Jun 08:25:21 08:27:46 11° 284° (WNW) 08:30:12
BRITE-PL 30 Jun 08:31:42 08:32:48 11° 294° (WNW) 08:33:53 437.365/2234.400
AAUSAT CUBESAT 2 30 Jun 08:32:08 08:32:09 10° 91° (E) 08:32:11 437.432
CUSAT 1 30 Jun 08:33:39 08:40:45 38° 283° (WNW) 08:46:52 437.405
CUBEBUG 2 30 Jun 08:34:54 08:36:29 11° 91° (E) 08:38:03 437.445
Cubesat XI-IV 30 Jun 08:41:13 08:45:05 20° 295° (WNW) 08:48:56 437.490
HO-68 30 Jun 08:43:04 08:50:00 48° 100° (E) 08:56:53 435.675
CINEMA 3 30 Jun 08:47:42 08:52:16 58° 100° (E) 08:57:02 145.822/145.860
NOAA 18 30 Jun 08:51:17 08:54:41 17° 297° (WNW) 08:58:06 137.9125
GOMX 1 30 Jun 08:54:27 08:56:49 15° 292° (WNW) 08:59:14 467.674
COMPASS 1 30 Jun 09:04:41 09:08:32 35° 98° (E) 09:12:20 437.405
FUNcube-1 30 Jun 09:09:44 09:11:01 11° 91° (E) 09:12:17 145.935
CANX-2 30 Jun 09:10:04 09:14:22 78° 282° (WNW) 09:18:36 2200.000
DANDE 30 Jun 09:12:30 09:20:23 43° 284° (WNW) 09:27:44 436.750
UWE-3 30 Jun 09:16:24 09:20:08 23° 95° (E) 09:23:51 435.000/436.395/437.385
CUTE 1.7 + AOD 2 30 Jun 09:29:48 09:33:58 51° 285° (WNW) 09:38:05 437.475
SEEDS 30 Jun 09:30:10 09:34:24 74° 284° (WNW) 09:38:35 437.485
AUBIESAT-1 30 Jun 09:33:02 09:36:09 21° 101° (ESE) 09:39:25 437.475
ISS 30 Jun 09:34:07 09:36:06 15° 332° (NNW) 09:38:05 145.825
TIGRISAT 30 Jun 09:36:46 09:39:07 14° 66° (ENE) 09:41:30 435.000
UNISAT 6 30 Jun 09:41:57 09:44:50 18° 67° (ENE) 09:47:47 437.425
PHONESAT 2.4 30 Jun 09:51:53 09:54:49 40° 12° (NNE) 09:57:45 2401.200-2431.200
PRISM 30 Jun 09:54:01 09:56:43 17° 265° (W) 09:59:25 437.425
DELFI C3 30 Jun 10:00:11 10:03:03 19° 95° (E) 10:05:53 145.870
AAUSAT CUBESAT 2 30 Jun 10:03:52 10:07:55 52° 285° (WNW) 10:11:56 437.432
CUBEBUG 2 30 Jun 10:08:47 10:13:22 60° 285° (WNW) 10:18:02 437.445
M-CUBED/EXP-1 PRIME 30 Jun 10:13:14 10:17:16 80° 108° (ESE) 10:21:37 437.505
ANTELSAT 30 Jun 10:20:13 10:24:20 48° 74° (ENE) 10:28:35 437.575/2403.000
ZACube-1 30 Jun 10:26:31 10:31:06 86° 284° (WNW) 10:35:42 437.345
CINEMA 3 30 Jun 10:26:51 10:28:57 13° 294° (WNW) 10:31:06 145.822/145.860
HO-68 30 Jun 10:31:21 10:37:22 30° 296° (WNW) 10:43:22 435.675
Oscar 11 30 Jun 10:32:46 10:37:06 67° 284° (WNW) 10:41:24 145.826/435.025
RS-15 30 Jun 10:39:32 10:49:20 36° 105° (ESE) 10:59:34 29.354- 29.394
COMPASS 1 30 Jun 10:41:11 10:43:46 16° 292° (WNW) 10:46:19 437.405
FUNcube-1 30 Jun 10:43:04 10:47:33 59° 285° (WNW) 10:52:03 145.935
UWE-3 30 Jun 10:52:31 10:56:31 29° 289° (WNW) 11:00:32 435.000/436.395/437.385
JAS-2 30 Jun 11:04:03 11:06:16 12° 59° (ENE) 11:08:26 435.910
NANOSAT C BR1 30 Jun 11:04:42 11:07:55 22° 69° (ENE) 11:11:09 145.865
AUBIESAT-1 30 Jun 11:07:03 11:10:34 29° 292° (WNW) 11:14:15 437.475
QB50P1 30 Jun 11:08:36 11:12:04 26° 70° (ENE) 11:15:33 145.935-145.965
PCSat 30 Jun 11:10:35 11:15:50 47° 59° (ENE) 11:21:01 145.827
TIGRISAT 30 Jun 11:11:19 11:15:23 43° 261° (W) 11:19:34 435.000
POPSAT HIP 1 30 Jun 11:11:55 11:15:28 27° 71° (ENE) 11:19:02 437.405
UNISAT 6 30 Jun 11:17:21 11:21:16 34° 263° (W) 11:25:16 437.425
HUMSAT D 30 Jun 11:22:21 11:26:41 90° 338° (NNW) 11:30:58 437.325/437.525
DUCHIFAT 1 30 Jun 11:23:40 11:27:24 34° 72° (ENE) 11:31:11 145.980
QB50P2 30 Jun 11:24:18 11:28:15 42° 73° (ENE) 11:32:14 145.880/145.840
POLYITAN 1 30 Jun 11:26:55 11:30:53 43° 73° (ENE) 11:34:52 437.675
BEESAT 3 30 Jun 11:27:17 11:31:12 60° 59° (ENE) 11:35:05 437.485
PHONESAT 2.4 30 Jun 11:28:30 11:31:29 48° 207° (SSW) 11:34:27 2401.200-2431.200
YUBILEINY 30 Jun 11:30:14 11:35:34 18° 80° (E) 11:40:56 435.215
DELFI C3 30 Jun 11:34:33 11:37:52 26° 289° (WNW) 11:41:09 145.870
AISAT 30 Jun 11:42:55 11:45:11 14° 93° (E) 11:47:28 437.250
50 SAT 30 Jun 11:43:51 11:45:26 12° 93° (E) 11:47:00 437.505
ESTCUBE 1 30 Jun 11:45:59 11:49:41 25° 96° (E) 11:53:22 437.505/2401.250
Cosmos 2491 30 Jun 11:46:01 11:54:32 55° 79° (E) 12:03:00 435.465 / 435.565
DX 1 30 Jun 11:55:46 11:57:59 14° 93° (E) 12:00:12 434.975-435.025
ANTELSAT 30 Jun 11:59:39 12:01:20 12° 269° (W) 12:03:00 437.575/2403.000
BEESAT 2 30 Jun 12:09:10 12:13:10 83° 244° (WSW) 12:17:08 435.950
BUGSAT 1 30 Jun 12:10:54 12:14:48 54° 75° (ENE) 12:18:43 437.445
Oscar 19 30 Jun 12:15:19 12:15:56 10° 61° (ENE) 12:16:32 437.125/150
CUBEBUG 1 30 Jun 12:22:59 12:27:07 43° 99° (E) 12:31:14 437.445
VELOX 1 30 Jun 12:36:24 12:40:45 57° 101° (E) 12:45:04 145.980
O/OREOS (USA 219) 30 Jun 12:36:58 12:41:24 59° 68° (ENE) 12:45:50 437.305
NANOSAT C BR1 30 Jun 12:40:03 12:43:30 25° 264° (W) 12:46:59 145.865
JAS-2 30 Jun 12:42:40 12:50:18 70° 74° (ENE) 12:57:15 435.910
QB50P1 30 Jun 12:44:34 12:47:47 21° 265° (W) 12:51:01 145.935-145.965
POPSAT HIP 1 30 Jun 12:48:09 12:51:13 20° 265° (W) 12:54:19 437.405
RS-15 30 Jun 12:49:52 13:01:03 60° 306° (NW) 13:12:57 29.354- 29.394
PCSat 30 Jun 12:54:57 12:58:49 20° 254° (WSW) 13:02:39 145.827
DUCHIFAT 1 30 Jun 13:00:38 13:03:11 16° 266° (W) 13:05:45 145.980
QB50P2 30 Jun 13:02:17 13:04:15 13° 267° (W) 13:06:12 145.880/145.840
SPROUT 30 Jun 13:03:41 13:07:51 49° 100° (E) 13:12:01 437.525
POLYITAN 1 30 Jun 13:05:02 13:06:53 13° 267° (W) 13:08:43 437.675
UKube-1 30 Jun 13:06:09 13:10:28 77° 103° (ESE) 13:14:45 .
AIST 2 30 Jun 13:09:03 13:12:19 22° 52° (NE) 13:15:34 435.215
Cosmos 2504 30 Jun 13:13:05 13:19:37 27° 83° (E) 13:26:27 435.465 / 435.565
50 SAT 30 Jun 13:15:53 13:19:12 32° 287° (WNW) 13:22:29 437.505
AISAT 30 Jun 13:17:40 13:21:50 43° 287° (WNW) 13:26:00 437.250
YUBILEINY 30 Jun 13:22:32 13:31:14 79° 278° (W) 13:40:02 435.215
ESTCUBE 1 30 Jun 13:22:42 13:26:23 25° 290° (WNW) 13:30:03 437.505/2401.250
DX 1 30 Jun 13:30:14 13:34:20 43° 287° (WNW) 13:38:26 434.975-435.025
Cosmos 2491 30 Jun 13:43:48 13:50:47 28° 276° (W) 13:57:47 435.465 / 435.565
Oscar 19 30 Jun 13:49:19 13:54:29 86° 255° (WSW) 13:59:39 437.125/150
CUBEBUG 1 30 Jun 14:00:42 14:03:00 14° 294° (WNW) 14:05:17 437.445
SWISSCUBE 30 Jun 14:09:46 14:11:47 12° 92° (E) 14:13:48 437.505
VELOX 1 30 Jun 14:15:10 14:16:41 12° 295° (WNW) 14:18:12 145.980
TISAT 1 30 Jun 14:16:04 14:20:18 84° 105° (ESE) 14:24:31 437.305
ITAMSAT 1 30 Jun 14:17:36 14:21:49 26° 67° (ENE) 14:26:04 435.822/435.867
O/OREOS (USA 219) 30 Jun 14:19:43 14:20:12 10° 262° (W) 14:20:41 437.305
JUGNU 30 Jun 14:22:46 14:25:19 13° 169° (SSE) 14:27:52 437.505
Gurwin Techsat 1B 30 Jun 14:23:19 14:28:37 85° 75° (ENE) 14:33:58 435.225
ISS 30 Jun 14:26:30 14:29:12 23° 33° (NNE) 14:31:54 145.825
JAS-2 30 Jun 14:30:16 14:35:34 20° 267° (W) 14:40:37 435.910
AO-7 30 Jun 14:32:30 14:39:06 27° 59° (ENE) 14:45:43 29.400- 29.500
BEESAT 30 Jun 14:33:24 14:37:02 21° 95° (E) 14:40:37 436.000
ITUPSAT 1 30 Jun 14:35:50 14:39:33 22° 95° (E) 14:43:14 437.325
SPROUT 30 Jun 14:41:31 14:43:20 13° 294° (WNW) 14:45:10 437.525
SO-50 30 Jun 14:42:59 14:46:59 26° 111° (ESE) 14:51:01 436.795
AIST 2 30 Jun 14:47:09 14:50:48 30° 247° (WSW) 14:54:26 435.215
Cosmos 2504 30 Jun 15:04:27 15:12:20 55° 281° (WNW) 15:20:50 435.465 / 435.565
RS-15 30 Jun 15:08:47 15:16:51 20° 334° (NNW) 15:25:13 29.354- 29.394
YUBILEINY 30 Jun 15:25:39 15:29:29 13° 297° (WNW) 15:33:20 435.215
SWISSCUBE 30 Jun 15:45:11 15:49:53 57° 286° (WNW) 15:54:33 437.505
ITAMSAT 1 30 Jun 15:56:24 16:01:05 34° 262° (W) 16:05:49 435.822/435.867
ISS 30 Jun 16:02:44 16:05:39 30° 228° (SW) 16:08:34 145.825
AIST 1 30 Jun 16:03:48 16:05:07 11° 85° (E) 16:06:27
JUGNU 30 Jun 16:09:50 16:13:34 17° 179° (S) 16:17:18 437.505
BEESAT 30 Jun 16:10:32 16:14:50 34° 290° (WNW) 16:19:07 436.000
ITUPSAT 1 30 Jun 16:13:06 16:17:24 33° 290° (WNW) 16:21:39 437.325
SO-50 30 Jun 16:22:53 16:27:19 34° 306° (NW) 16:31:46 436.795
KKS-1 30 Jun 16:22:57 16:27:03 35° 99° (E) 16:31:06 437.445
AO-7 30 Jun 16:23:00 16:31:13 64° 256° (WSW) 16:39:31 29.400- 29.500
MOZHAYETS 4 30 Jun 16:29:25 16:33:47 39° 98° (E) 16:38:05
HORYU 2 30 Jun 16:43:17 16:47:23 40° 72° (ENE) 16:51:33 437.375
STARS 30 Jun 16:48:57 16:52:58 33° 98° (E) 16:56:57 437.465
NOAA 18 30 Jun 16:57:35 16:58:11 10° 59° (ENE) 16:58:48 137.9125
CUTE-I 30 Jun 17:15:57 17:18:38 14° 63° (ENE) 17:21:20 437.470
GONETS M04 30 Jun 17:26:45 17:33:23 25° 83° (E) 17:40:00
SRMSAT 30 Jun 17:29:04 17:32:28 15° 173° (S) 17:35:51 437.500
RS-15 30 Jun 17:29:54 17:36:30 16° 12° (NNE) 17:43:09 29.354- 29.394
NOAA 15 30 Jun 17:34:29 17:39:00 30° 68° (ENE) 17:43:33 137.62
AIST 1 30 Jun 17:38:04 17:42:13 47° 279° (W) 17:46:23
Cosmos 2499 30 Jun 17:43:34 17:49:18 21° 80° (E) 17:55:13 435.465 / 435.565
BRITE-PL 30 Jun 17:58:11 18:03:00 46° 74° (ENE) 18:07:28 437.365/2234.400
JUGNU 30 Jun 17:58:44 18:01:50 14° 189° (S) 18:04:55 437.505
KKS-1 30 Jun 18:00:15 18:03:19 19° 293° (WNW) 18:06:23 437.445
CUBESAT XI-V 30 Jun 18:03:10 18:07:36 45° 99° (E) 18:11:59 437.345
MOZHAYETS 4 30 Jun 18:07:31 18:10:36 18° 293° (WNW) 18:13:40
LilacSat-2 30 Jun 18:18:16 18:21:53 45° 74° (ENE) 18:25:32 437.200
DANDE 30 Jun 18:18:32 18:19:11 10° 62° (ENE) 18:19:48 436.750
Cubesat XI-IV 30 Jun 18:19:14 18:24:27 57° 73° (ENE) 18:29:42 437.490
GOMX 1 30 Jun 18:20:35 18:24:39 32° 73° (ENE) 18:28:32 467.674
HORYU 2 30 Jun 18:21:26 18:24:06 16° 266° (W) 18:26:45 437.375
STARS 30 Jun 18:25:57 18:29:03 19° 292° (WNW) 18:32:09 437.465
NOAA 18 30 Jun 18:32:29 18:37:58 86° 73° (ENE) 18:43:29 137.9125
CUTE-I 30 Jun 18:52:45 18:58:03 68° 258° (WSW) 19:03:24 437.470
DOVE 4 30 Jun 19:08:44 19:12:53 47° 75° (ENE) 19:16:54 437.250
HO-68 30 Jun 19:09:25 19:15:09 27° 63° (ENE) 19:20:56 435.675
CUSAT 1 30 Jun 19:13:51 19:16:47 34° 267° (W) 19:19:18 437.405
NOAA 15 30 Jun 19:14:06 19:18:41 29° 263° (W) 19:23:16 137.62
SRMSAT 30 Jun 19:17:17 19:20:52 16° 184° (S) 19:24:27 437.500
GONETS M04 30 Jun 19:20:56 19:29:29 60° 280° (W) 19:38:04
Cosmos 2499 30 Jun 19:33:07 19:41:22 73° 279° (W) 19:50:11 435.465 / 435.565
BRITE-PL 30 Jun 19:38:32 19:41:34 16° 266° (W) 19:44:29 437.365/2234.400
CUBESAT XI-V 30 Jun 19:41:54 19:44:34 15° 294° (WNW) 19:47:13 437.345
RS-15 30 Jun 19:42:57 19:54:11 38° 45° (NE) 20:05:19 29.354- 29.394
CINEMA 3 30 Jun 19:47:09 19:50:52 33° 72° (ENE) 19:54:37 145.822/145.860
COMPASS 1 30 Jun 19:53:24 19:56:11 17° 68° (ENE) 19:58:58 437.405
DANDE 30 Jun 19:58:39 20:02:38 36° 269° (W) 20:05:43 436.750
GOMX 1 30 Jun 19:59:30 20:02:45 19° 265° (W) 20:05:54 467.674
CANX-2 30 Jun 19:59:35 20:03:43 49° 74° (ENE) 20:07:52 2200.000
Cubesat XI-IV 30 Jun 20:01:48 20:04:50 15° 268° (W) 20:07:53 437.490
UWE-3 30 Jun 20:12:26 20:14:14 12° 65° (ENE) 20:16:01 435.000/436.395/437.385
AO-85 30 Jun 20:13:44 20:18:09 26° 110° (ESE) 20:22:31 145.980
SEEDS 30 Jun 20:18:37 20:22:43 50° 75° (ENE) 20:26:50 437.485
AUBIESAT-1 30 Jun 20:18:38 20:19:56 12° 63° (ENE) 20:21:15 437.475
CUTE 1.7 + AOD 2 30 Jun 20:18:57 20:23:12 74° 78° (ENE) 20:27:30 437.475
STRAND 1 30 Jun 20:21:15 20:26:26 81° 103° (ESE) 20:31:33 437.568
DOVE 4 30 Jun 20:49:27 20:50:48 11° 267° (W) 20:52:07 437.250
AAUSAT CUBESAT 2 30 Jun 20:50:37 20:54:46 66° 76° (ENE) 20:58:57 437.432
HO-68 30 Jun 20:55:30 21:02:26 53° 259° (W) 21:09:26 435.675
M-CUBED/EXP-1 PRIME 30 Jun 20:58:04 21:01:16 54° 70° (ENE) 21:04:28 437.505
CUBEBUG 2 30 Jun 21:03:55 21:08:03 78° 78° (ENE) 21:12:20 437.445
SRMSAT 30 Jun 21:07:43 21:09:15 11° 194° (SSW) 21:10:47 437.500
ZACube-1 30 Jun 21:19:22 21:23:25 49° 74° (ENE) 21:27:34 437.345
Oscar 11 30 Jun 21:24:10 21:28:27 62° 75° (ENE) 21:32:45 145.826/435.025
CINEMA 3 30 Jun 21:25:38 21:28:07 15° 267° (W) 21:30:36 145.822/145.860
COMPASS 1 30 Jun 21:27:38 21:31:27 33° 263° (W) 21:35:18 437.405
Cosmos 2499 30 Jun 21:32:55 21:36:09 12° 299° (WNW) 21:39:28 435.465 / 435.565
FUNcube-1 30 Jun 21:35:24 21:39:33 73° 76° (ENE) 21:43:51 145.935
PRISM 30 Jun 21:36:42 21:40:48 81° 105° (ESE) 21:44:51 437.425
CANX-2 30 Jun 21:38:19 21:39:49 12° 269° (W) 21:41:19 2200.000
UWE-3 30 Jun 21:46:10 21:50:12 47° 261° (W) 21:54:21 435.000/436.395/437.385
AUBIESAT-1 30 Jun 21:51:16 21:54:09 28° 257° (WSW) 21:57:05 437.475
AO-85 30 Jun 21:53:21 21:58:27 41° 305° (NW) 22:03:25 145.980
RS-15 30 Jun 21:55:19 22:07:30 67° 247° (WSW) 22:19:27 29.354- 29.394
SEEDS 30 Jun 21:57:21 21:58:39 11° 268° (W) 21:59:58 437.485
STRAND 1 30 Jun 22:03:32 22:04:51 11° 299° (WNW) 22:06:09 437.568
HUMSAT D 30 Jun 22:10:35 22:14:30 40° 73° (ENE) 22:18:28 437.325/437.525
ANTELSAT 30 Jun 22:16:06 22:18:32 14° 92° (E) 22:20:59 437.575/2403.000
DELFI C3 30 Jun 22:16:31 22:20:32 70° 259° (W) 22:24:34 145.870
ESTCUBE 1 30 Jun 22:43:22 22:46:21 17° 67° (ENE) 22:49:20 437.505/2401.250
ZACube-1 30 Jun 22:58:40 22:59:59 11° 269° (W) 23:01:19 437.345
TIGRISAT 30 Jun 23:05:11 23:09:42 47° 99° (E) 23:14:14 435.000
UNISAT 6 30 Jun 23:11:07 23:15:45 59° 101° (E) 23:20:24 437.425
CUBEBUG 1 30 Jun 23:16:25 23:20:00 26° 70° (ENE) 23:23:34 437.445
SO-50 30 Jun 23:18:21 23:20:17 12° 44° (NE) 23:22:13 436.795
VELOX 1 30 Jun 23:30:54 23:34:53 34° 72° (ENE) 23:38:53 145.980
YUBILEINY 30 Jun 23:36:32 23:44:57 46° 77° (ENE) 23:53:18 435.215
HUMSAT D 30 Jun 23:48:11 23:50:17 14° 268° (W) 23:52:24 437.325/437.525
50 SAT 30 Jun 23:50:09 23:53:49 64° 76° (ENE) 23:57:31 437.505
ANTELSAT 30 Jun 23:50:56 23:55:28 50° 286° (WNW) 00:00:00 437.575/2403.000
SPROUT 30 Jun 23:54:45 23:58:16 26° 71° (ENE) 00:01:48 437.525
UKube-1 30 Jun 23:57:41 00:01:45 43° 73° (ENE) 00:05:50 .
AISAT 01 Jul 00:11:37 00:16:01 73° 259° (WSW) 00:20:25 437.250
RS-15 01 Jul 00:13:53 00:17:32 12° 265° (W) 00:21:11 29.354- 29.394
ESTCUBE 1 01 Jul 00:18:35 00:22:49 39° 262° (W) 00:27:05 437.505/2401.250
DX 1 01 Jul 00:22:18 00:26:38 75° 258° (WSW) 00:30:59 434.975-435.025
NANOSAT C BR1 01 Jul 00:26:21 00:30:34 60° 101° (E) 00:34:46 145.865
QB50P1 01 Jul 00:30:52 00:35:08 74° 102° (ESE) 00:39:23 145.935-145.965
POPSAT HIP 1 01 Jul 00:34:20 00:38:37 80° 103° (ESE) 00:42:54 437.405
Cosmos 2491 01 Jul 00:42:58 00:51:39 70° 93° (E) 01:00:19 435.465 / 435.565
TIGRISAT 01 Jul 00:43:11 00:45:58 16° 294° (WNW) 00:48:43 435.000
DUCHIFAT 1 01 Jul 00:45:36 00:49:51 83° 283° (WNW) 00:54:06 145.980
QB50P2 01 Jul 00:47:24 00:51:39 66° 285° (WNW) 00:55:53 145.880/145.840
UNISAT 6 01 Jul 00:49:53 00:51:56 13° 295° (WNW) 00:53:59 437.425
POLYITAN 1 01 Jul 00:50:02 00:54:17 64° 285° (WNW) 00:58:31 437.675
CUBEBUG 1 01 Jul 00:52:42 00:56:11 23° 264° (W) 00:59:40 437.445
SO-50 01 Jul 00:56:44 01:01:23 80° 242° (WSW) 01:05:51 436.795
Cosmos 2504 01 Jul 01:00:35 01:09:07 50° 78° (ENE) 01:17:12 435.465 / 435.565
TISAT 1 01 Jul 01:04:49 01:08:42 40° 73° (ENE) 01:12:36 437.305
VELOX 1 01 Jul 01:08:27 01:11:25 18° 266° (W) 01:14:24 145.980
SWISSCUBE 01 Jul 01:14:27 01:15:59 11° 63° (ENE) 01:17:31 437.505
BEESAT 3 01 Jul 01:16:00 01:18:53 20° 111° (ESE) 01:21:48 437.485
BUGSAT 1 01 Jul 01:30:30 01:34:32 55° 285° (WNW) 01:38:35 437.445
SPROUT 01 Jul 01:30:51 01:34:08 22° 265° (W) 01:37:27 437.525
YUBILEINY 01 Jul 01:33:45 01:41:25 35° 274° (W) 01:49:06 435.215
UKube-1 01 Jul 01:35:48 01:37:58 14° 267° (W) 01:40:09 .
BEESAT 01 Jul 01:37:29 01:40:44 19° 66° (ENE) 01:44:00 436.000
ITUPSAT 1 01 Jul 01:40:11 01:43:35 19° 67° (ENE) 01:46:58 437.325
JAS-2 01 Jul 01:41:27 01:46:56 74° 102° (ESE) 01:52:05 435.910
PCSat 01 Jul 01:48:53 01:54:17 80° 115° (ESE) 01:59:44 145.827
BEESAT 2 01 Jul 01:58:29 02:02:03 33° 113° (ESE) 02:05:38 435.950
Oscar 19 01 Jul 02:03:59 02:08:51 42° 99° (E) 02:13:41 437.125/150
NANOSAT C BR1 01 Jul 02:05:10 02:05:45 10° 295° (WNW) 02:06:20 145.865
ITAMSAT 1 01 Jul 02:35:56 02:36:50 10° 91° (E) 02:37:44 435.822/435.867
TISAT 1 01 Jul 02:42:27 02:44:30 13° 267° (W) 02:46:34 437.305
Gurwin Techsat 1B 01 Jul 02:42:41 02:47:44 43° 99° (E) 02:52:45 435.225
Cosmos 2491 01 Jul 02:42:44 02:49:10 22° 291° (WNW) 02:55:38 435.465 / 435.565
O/OREOS (USA 219) 01 Jul 02:46:09 02:50:36 65° 291° (WNW) 02:55:03 437.305
SWISSCUBE 01 Jul 02:48:23 02:53:08 70° 258° (WSW) 02:57:56 437.505
BEESAT 3 01 Jul 02:52:59 02:56:23 28° 306° (NW) 02:59:48 437.485
Cosmos 2504 01 Jul 02:54:36 03:02:02 32° 276° (W) 03:09:09 435.465 / 435.565
BEESAT 01 Jul 03:13:41 03:18:11 41° 261° (W) 03:22:42 436.000
ITUPSAT 1 01 Jul 03:16:37 03:21:06 39° 261° (W) 03:25:36 437.325
KKS-1 01 Jul 03:18:37 03:22:06 23° 69° (ENE) 03:25:34 437.445
MOZHAYETS 4 01 Jul 03:28:35 03:32:29 27° 70° (ENE) 03:36:23
JAS-2 01 Jul 03:29:24 03:31:12 12° 300° (WNW) 03:32:57 435.910
PCSat 01 Jul 03:35:21 03:38:18 15° 312° (NW) 03:41:17 145.827
BEESAT 2 01 Jul 03:37:08 03:39:58 18° 309° (NW) 03:42:47 435.950
STARS 01 Jul 03:43:20 03:46:37 21° 68° (ENE) 03:49:53 437.465
Oscar 19 01 Jul 03:44:09 03:47:50 20° 294° (WNW) 03:51:31 437.125/150
AIST 1 01 Jul 03:48:12 03:51:54 28° 77° (ENE) 03:55:35
ITAMSAT 1 01 Jul 04:11:33 04:16:48 76° 285° (WNW) 04:22:00 435.822/435.867
Gurwin Techsat 1B 01 Jul 04:23:25 04:27:21 21° 294° (WNW) 04:31:16 435.225
AO-7 01 Jul 04:27:52 04:36:02 54° 102° (ESE) 04:44:08 29.400- 29.500
AIST 2 01 Jul 04:41:10 04:45:15 73° 300° (WNW) 04:49:23 435.215
KKS-1 01 Jul 04:54:45 04:58:30 27° 263° (W) 05:02:16 437.445
CUBESAT XI-V 01 Jul 05:03:34 05:07:44 32° 71° (ENE) 05:11:54 437.345
MOZHAYETS 4 01 Jul 05:05:46 05:09:33 25° 264° (W) 05:13:23
STARS 01 Jul 05:18:59 05:22:46 29° 263° (W) 05:26:35 437.465
AIST 1 01 Jul 05:26:21 05:29:14 18° 272° (W) 05:32:09
